TimeCDT,TemperatureF,Dew PointF,Humidity,Sea Level PressureIn,VisibilityMPH,Wind Direction,Wind SpeedMPH,Gust SpeedMPH,PrecipitationIn,Events,Conditions,WindDirDegrees,DateUTC
12:15 AM,-9999,-9999,N/A,30.09,10.0,NE,17.3,20.7,0.02,,Overcast,40,2011-11-03 05:15:00
12:55 AM,-9999,-9999,N/A,30.08,10.0,NNE,19.6,23.0,0.06,,Overcast,30,2011-11-03 05:55:00
1:15 AM,-9999,-9999,N/A,30.07,10.0,NNE,16.1,23.0,0.03,,Overcast,30,2011-11-03 06:15:00
1:35 AM,-9999,-9999,N/A,30.06,10.0,NE,21.9,-,0.05,,Overcast,40,2011-11-03 06:35:00
1:55 AM,-9999,-9999,N/A,30.06,10.0,NE,15.0,24.2,0.06,,Overcast,40,2011-11-03 06:55:00
2:15 AM,-9999,-9999,N/A,30.05,10.0,NE,17.3,23.0,0.01,,Overcast,40,2011-11-03 07:15:00
2:35 AM,-9999,-9999,N/A,30.05,10.0,NE,17.3,23.0,0.01,,Overcast,40,2011-11-03 07:35:00
2:55 AM,-9999,-9999,N/A,30.04,10.0,NE,21.9,26.5,0.01,,Overcast,40,2011-11-03 07:55:00
3:15 AM,-9999,-9999,N/A,30.02,10.0,NE,19.6,29.9,0.01,,Overcast,40,2011-11-03 08:15:00
3:35 AM,-9999,-9999,N/A,30.01,10.0,NE,24.2,29.9,0.01,,Overcast,40,2011-11-03 08:35:00
4:15 AM,-9999,-9999,N/A,29.98,10.0,NE,26.5,32.2,N/A,,Overcast,40,2011-11-03 09:15:00
4:35 AM,-9999,-9999,N/A,30.00,10.0,NE,20.7,33.4,N/A,,Overcast,40,2011-11-03 09:35:00
4:55 AM,-9999,-9999,N/A,30.00,10.0,NE,27.6,34.5,N/A,,Overcast,50,2011-11-03 09:55:00
5:15 AM,-9999,-9999,N/A,30.01,10.0,ENE,23.0,31.1,N/A,,Overcast,60,2011-11-03 10:15:00
5:35 AM,-9999,-9999,N/A,30.00,10.0,NE,23.0,34.5,N/A,,Overcast,40,2011-11-03 10:35:00
5:55 AM,-9999,-9999,N/A,30.01,10.0,NE,23.0,28.8,N/A,,Overcast,40,2011-11-03 10:55:00
6:15 AM,-9999,-9999,N/A,30.02,10.0,NE,17.3,23.0,N/A,,Overcast,50,2011-11-03 11:15:00
6:35 AM,-9999,-9999,N/A,30.02,10.0,NE,19.6,28.8,N/A,,Overcast,40,2011-11-03 11:35:00
7:15 AM,-9999,-9999,N/A,30.03,10.0,NE,20.7,27.6,N/A,,Overcast,40,2011-11-03 12:15:00
7:35 AM,-9999,-9999,N/A,30.04,10.0,NE,18.4,33.4,N/A,,Overcast,40,2011-11-03 12:35:00
7:55 AM,-9999,-9999,N/A,30.04,10.0,NE,18.4,25.3,N/A,,Overcast,40,2011-11-03 12:55:00
8:15 AM,-9999,-9999,N/A,30.04,10.0,NE,19.6,-,N/A,,Overcast,40,2011-11-03 13:15:00
8:35 AM,-9999,-9999,N/A,30.05,10.0,NE,20.7,32.2,N/A,,Overcast,40,2011-11-03 13:35:00
8:55 AM,-9999,-9999,N/A,30.03,10.0,NNE,19.6,31.1,N/A,,Overcast,30,2011-11-03 13:55:00
9:35 AM,-9999,-9999,N/A,30.07,10.0,NE,20.7,33.4,N/A,,Overcast,40,2011-11-03 14:35:00
9:55 AM,-9999,-9999,N/A,30.09,10.0,NNE,18.4,21.9,N/A,,Overcast,20,2011-11-03 14:55:00
10:15 AM,-9999,-9999,N/A,30.10,10.0,North,17.3,23.0,N/A,,Overcast,10,2011-11-03 15:15:00
10:35 AM,-9999,-9999,N/A,30.11,10.0,NNE,16.1,24.2,N/A,,Overcast,20,2011-11-03 15:35:00
10:55 AM,-9999,-9999,N/A,30.12,10.0,North,17.3,-,N/A,,Overcast,10,2011-11-03 15:55:00
11:15 AM,-9999,-9999,N/A,30.12,10.0,NNE,17.3,21.9,N/A,,Overcast,20,2011-11-03 16:15:00
11:35 AM,-9999,-9999,N/A,30.13,10.0,NNE,19.6,26.5,N/A,,Overcast,20,2011-11-03 16:35:00
11:55 AM,-9999,-9999,N/A,30.12,10.0,NNE,18.4,26.5,N/A,,Overcast,20,2011-11-03 16:55:00
12:35 PM,-9999,-9999,N/A,30.12,10.0,NNE,16.1,26.5,N/A,,Overcast,20,2011-11-03 17:35:00
12:55 PM,-9999,-9999,N/A,30.11,10.0,NNE,19.6,-,N/A,,Overcast,30,2011-11-03 17:55:00
1:15 PM,-9999,-9999,N/A,30.11,10.0,NNE,17.3,24.2,N/A,,Overcast,20,2011-11-03 18:15:00
1:35 PM,-9999,-9999,N/A,30.10,10.0,NNE,18.4,24.2,N/A,,Overcast,30,2011-11-03 18:35:00
1:55 PM,-9999,-9999,N/A,30.09,10.0,NNE,20.7,25.3,N/A,,Overcast,30,2011-11-03 18:55:00
2:15 PM,-9999,-9999,N/A,30.09,10.0,NE,21.9,28.8,N/A,,Overcast,40,2011-11-03 19:15:00
2:35 PM,-9999,-9999,N/A,30.09,10.0,NNE,21.9,27.6,N/A,,Scattered Clouds,30,2011-11-03 19:35:00
2:55 PM,-9999,-9999,N/A,30.10,10.0,NE,24.2,28.8,N/A,,Clear,40,2011-11-03 19:55:00
3:15 PM,-9999,-9999,N/A,30.11,6.0,NNE,18.4,28.8,N/A,,Clear,30,2011-11-03 20:15:00
3:35 PM,-9999,-9999,N/A,30.12,10.0,NNE,21.9,27.6,N/A,,Clear,20,2011-11-03 20:35:00
3:55 PM,-9999,-9999,N/A,30.13,10.0,NNE,19.6,27.6,N/A,,Clear,20,2011-11-03 20:55:00
4:15 PM,-9999,-9999,N/A,30.13,10.0,NNE,16.1,20.7,N/A,,Clear,30,2011-11-03 21:15:00
4:35 PM,-9999,-9999,N/A,30.14,10.0,North,13.8,23.0,N/A,,Clear,10,2011-11-03 21:35:00
4:55 PM,-9999,-9999,N/A,30.14,10.0,NNE,16.1,23.0,N/A,,Clear,20,2011-11-03 21:55:00
5:15 PM,-9999,-9999,N/A,30.14,10.0,North,15.0,21.9,N/A,,Clear,10,2011-11-03 22:15:00
5:35 PM,-9999,-9999,N/A,30.16,10.0,NNE,15.0,-,N/A,,Clear,20,2011-11-03 22:35:00
5:55 PM,-9999,-9999,N/A,30.17,10.0,NNE,12.7,21.9,N/A,,Clear,20,2011-11-03 22:55:00
6:15 PM,-9999,-9999,N/A,30.18,10.0,NNE,10.4,-,N/A,,Clear,20,2011-11-03 23:15:00
6:35 PM,-9999,-9999,N/A,30.19,10.0,NNE,6.9,-,N/A,,Clear,20,2011-11-03 23:35:00
6:55 PM,-9999,-9999,N/A,30.19,10.0,North,9.2,-,N/A,,Clear,10,2011-11-03 23:55:00
7:15 PM,-9999,-9999,N/A,30.20,10.0,NNE,8.1,-,N/A,,Clear,20,2011-11-04 00:15:00
7:55 PM,-9999,-9999,N/A,30.21,10.0,NNE,9.2,-,N/A,,Clear,20,2011-11-04 00:55:00
8:15 PM,-9999,-9999,N/A,30.21,10.0,North,9.2,-,N/A,,Clear,10,2011-11-04 01:15:00
8:35 PM,-9999,-9999,N/A,30.21,10.0,North,9.2,-,N/A,,Clear,10,2011-11-04 01:35:00
8:55 PM,-9999,-9999,N/A,30.22,10.0,North,5.8,-,N/A,,Clear,350,2011-11-04 01:55:00
9:15 PM,-9999,-9999,N/A,30.22,10.0,Calm,Calm,-,N/A,,Clear,0,2011-11-04 02:15:00
9:35 PM,-9999,-9999,N/A,30.22,10.0,North,8.1,-,N/A,,Clear,10,2011-11-04 02:35:00
9:55 PM,-9999,-9999,N/A,30.23,10.0,NNE,3.5,-,N/A,,Clear,20,2011-11-04 02:55:00
10:15 PM,-9999,-9999,N/A,30.24,10.0,NE,3.5,-,N/A,,Clear,50,2011-11-04 03:15:00
10:35 PM,-9999,-9999,N/A,30.25,10.0,North,6.9,-,N/A,,Clear,10,2011-11-04 03:35:00
10:55 PM,-9999,-9999,N/A,30.26,10.0,North,5.8,-,N/A,,Clear,350,2011-11-04 03:55:00
11:55 PM,-9999,-9999,N/A,30.26,10.0,North,8.1,-,N/A,,Clear,360,2011-11-04 04:55:00